M I D A S
Marine Information and Data Acquisition System
Tripno 61 of the Zeeleeuw from 2001-08-29 06:08:12 to 2001-08-29 16:50:04
Back to CruiseResearch ActivitiesStationsMapUnderway DataData graphs

EquipmentUnitsComments
TimeDGPSUTC
LatitudeDGPSDM.mWGS84
LongitudeDGPSDM.mWGS84
SpeedMeteo Stationm/sRelative wind speed
DirectionMeteo StationdegRelative wind direction
TemperatureMeteo Stationdeg CelciusAir temperature
PressureMeteo StationPaAtmospheric pressure
HumidityMeteo Station%Relative humidity
Missing or incorrect values are displayed as -999
Metereological data collected by the RV Zeeleeuw from 2001-08-29 06:08:12 to 2001-08-29 16:50:04
                                                                                    Next 1000 lines
Time Latitude Longitude Speed Direction Temperature Pressure Humidity
2001-08-29 06:08:22 51°13.675 2°55.939 2.1 14 13.2 101650 82
2001-08-29 06:08:27 51°13.676 2°55.931 2.7 23 13.2 101650 82
2001-08-29 06:08:32 51°13.676 2°55.929 3 13 13.2 101650 82
2001-08-29 06:08:37 51°13.676 2°55.929 3.4 18 13.2 101650 83
2001-08-29 06:08:42 51°13.676 2°55.928 3.5 11 13.2 101650 83
2001-08-29 06:08:47 51°13.676 2°55.928 3.6 14 13.2 101650 83
2001-08-29 06:08:52 51°13.676 2°55.927 3.5 16 13.2 101650 83
2001-08-29 06:08:57 51°13.676 2°55.926 4 17 13.2 101650 83
2001-08-29 06:09:02 51°13.676 2°55.926 2.8 12 13.2 101650 83
2001-08-29 06:09:07 51°13.676 2°55.925 3.8 11 13.2 101650 83
2001-08-29 06:09:12 51°13.676 2°55.924 2.6 8 13.2 101650 83
2001-08-29 06:09:17 51°13.676 2°55.924 2.4 14 13.2 101650 82
2001-08-29 06:09:22 51°13.676 2°55.924 3 16 13.2 101650 82
2001-08-29 06:09:27 51°13.676 2°55.924 3.2 12 13.2 101650 82
2001-08-29 06:09:32 51°13.677 2°55.924 1.8 15 13.2 101650 82
2001-08-29 06:09:37 51°13.677 2°55.925 2.1 18 13.2 101650 83
2001-08-29 06:09:42 51°13.677 2°55.925 1.9 9 13.2 101650 83
2001-08-29 06:09:47 51°13.677 2°55.925 2.4 12 13.2 101650 83
2001-08-29 06:09:52 51°13.677 2°55.925 2.8 24 13.2 101650 83
2001-08-29 06:09:57 51°13.677 2°55.925 3.1 29 13.2 101650 83
2001-08-29 06:10:02 51°13.677 2°55.925 2.9 13 13.2 101650 83
2001-08-29 06:10:07 51°13.677 2°55.924 2.7 7 13.2 101650 83
2001-08-29 06:10:12 51°13.677 2°55.924 2.5 11 13.2 101650 83
2001-08-29 06:10:17 51°13.677 2°55.924 2.3 20 13.2 101650 83
2001-08-29 06:10:22 51°13.677 2°55.924 3.3 13 13.2 101650 83
2001-08-29 06:10:27 51°13.677 2°55.924 3.7 7 13.2 101650 83
2001-08-29 06:10:32 51°13.677 2°55.924 3.4 24 13.2 101650 83
2001-08-29 06:10:37 51°13.677 2°55.924 3.8 32 13.2 101650 83
2001-08-29 06:10:42 51°13.677 2°55.924 3.6 17 13.2 101650 83
2001-08-29 06:10:47 51°13.677 2°55.924 3.3 11 13.2 101650 83
2001-08-29 06:10:52 51°13.677 2°55.924 4.5 30 13.2 101650 83
2001-08-29 06:10:57 51°13.677 2°55.924 2.8 9 13.2 101650 83
2001-08-29 06:11:02 51°13.677 2°55.924 3.9 3 13.2 101650 83
2001-08-29 06:11:07 51°13.677 2°55.924 3.6 4 13.2 101650 82
2001-08-29 06:11:12 51°13.677 2°55.924 3.7 15 13.2 101650 82
2001-08-29 06:11:17 51°13.677 2°55.924 3.8 17 13.2 101650 82
2001-08-29 06:11:22 51°13.677 2°55.923 2.9 16 13.2 101650 82
2001-08-29 06:11:27 51°13.677 2°55.923 2.8 14 13.2 101650 82
2001-08-29 06:11:32 51°13.677 2°55.923 2.5 18 13.2 101650 82
2001-08-29 06:11:37 51°13.677 2°55.923 2.4 17 13.2 101650 83
2001-08-29 06:11:42 51°13.677 2°55.923 2.1 3 13.2 101650 83
2001-08-29 06:11:47 51°13.677 2°55.923 2.6 2 13.2 101650 83
2001-08-29 06:11:52 51°13.677 2°55.923 2 360 13.2 101650 83
2001-08-29 06:11:57 51°13.677 2°55.923 2 21 13.2 101650 83
2001-08-29 06:12:02 51°13.677 2°55.923 3 29 13.2 101650 83
2001-08-29 06:12:07 51°13.677 2°55.923 3 28 13.2 101650 83
2001-08-29 06:12:12 51°13.677 2°55.923 2.4 16 13.2 101650 83
2001-08-29 06:12:17 51°13.677 2°55.923 2.3 21 13.2 101650 83
2001-08-29 06:12:22 51°13.677 2°55.923 3.1 19 13.2 101650 83
2001-08-29 06:12:27 51°13.677 2°55.923 3.1 19 13.2 101650 83
2001-08-29 06:12:32 51°13.677 2°55.923 3.4 12 13.2 101650 83
2001-08-29 06:12:37 51°13.677 2°55.923 3.4 14 13.2 101660 83
2001-08-29 06:12:42 51°13.677 2°55.923 2.5 13 13.2 101660 83
2001-08-29 06:12:47 51°13.677 2°55.923 2.4 359 13.2 101660 83
2001-08-29 06:12:52 51°13.677 2°55.923 2.6 358 13.2 101660 83
2001-08-29 06:12:57 51°13.677 2°55.923 2.1   13.2 101660 83
2001-08-29 06:13:02 51°13.677 2°55.923 2.9 19 13.2 101660 83
2001-08-29 06:13:07 51°13.677 2°55.923 3.4 19 13.2 101660 83
2001-08-29 06:13:12 51°13.677 2°55.923 3.3 14 13.2 101660 83
2001-08-29 06:13:17 51°13.677 2°55.923 3.5 17 13.2 101660 83
2001-08-29 06:13:22 51°13.677 2°55.923 3.1 17 13.2 101660 83
2001-08-29 06:13:27 51°13.677 2°55.923 2.9 17 13.2 101660 83
2001-08-29 06:13:32 51°13.677 2°55.923 2.6 21 13.2 101660 83
2001-08-29 06:13:37 51°13.678 2°55.923 2.8 19 13.2 101660 83
2001-08-29 06:13:42 51°13.678 2°55.923 2.8 360 13.2 101660 83
2001-08-29 06:13:47 51°13.678 2°55.923 2.8 14 13.2 101660 83
2001-08-29 06:13:52 51°13.678 2°55.923 2.4 21 13.2 101660 83
2001-08-29 06:13:57 51°13.678 2°55.923 2.2 16 13.2 101660 83
2001-08-29 06:14:02 51°13.678 2°55.923 2.3 17 13.2 101660 83
2001-08-29 06:14:07 51°13.678 2°55.923 2.4 3 13.2 101660 83
2001-08-29 06:14:12 51°13.678 2°55.922 2.1 11 13.2 101660 83
2001-08-29 06:14:17 51°13.678 2°55.923 1.8 1 13.2 101660 83
2001-08-29 06:14:22 51°13.678 2°55.922 3.1 15 13.2 101660 83
2001-08-29 06:14:27 51°13.678 2°55.922 3 17 13.2 101660 83
2001-08-29 06:14:32 51°13.678 2°55.923 3 27 13.2 101660 83
2001-08-29 06:14:37 51°13.678 2°55.923 3.1 13 13.2 101660 83
2001-08-29 06:14:42 51°13.678 2°55.923 3.1 360 13.2 101660 83
2001-08-29 06:14:47 51°13.678 2°55.923 2.6 360 13.2 101660 83
2001-08-29 06:14:52 51°13.678 2°55.923 3.2 24 13.2 101660 83
2001-08-29 06:14:57 51°13.678 2°55.923 2.6 11 13.3 101660 83
2001-08-29 06:15:02 51°13.678 2°55.922 3.1 8 13.3 101660 83
2001-08-29 06:15:07 51°13.678 2°55.922 3.3 16 13.3 101670 83
2001-08-29 06:15:12 51°13.678 2°55.922 3.6 11 13.3 101670 83
2001-08-29 06:15:17 51°13.678 2°55.922 2.9 16 13.3 101660 83
2001-08-29 06:15:22 51°13.678 2°55.922 3 359 13.3 101660 83
2001-08-29 06:15:27 51°13.678 2°55.922 2.5 8 13.2 101660 83
2001-08-29 06:15:32 51°13.678 2°55.922 2.8 15 13.2 101660 83
2001-08-29 06:15:37 51°13.678 2°55.922 3.6 13 13.3 101670 83
2001-08-29 06:15:42 51°13.678 2°55.922 3.2 27 13.3 101670 83
2001-08-29 06:15:47 51°13.678 2°55.922 2.8 21 13.3 101670 83
2001-08-29 06:15:52 51°13.678 2°55.922 3.5 16 13.3 101670 83
2001-08-29 06:15:57 51°13.678 2°55.922 3.2 10 13.3 101670 83
2001-08-29 06:16:02 51°13.678 2°55.922 2.8 356 13.3 101670 83
2001-08-29 06:16:07 51°13.678 2°55.922 2.6 5 13.3 101670 83
2001-08-29 06:16:12 51°13.678 2°55.922 2.8 16 13.3 101670 83
2001-08-29 06:16:17 51°13.678 2°55.922 2.7 15 13.3 101660 83
2001-08-29 06:16:22 51°13.678 2°55.922 3 20 13.3 101660 83
2001-08-29 06:16:27 51°13.678 2°55.922 2.6 17 13.2 101670 82
2001-08-29 06:16:32 51°13.678 2°55.922 2.5 18 13.2 101670 82
2001-08-29 06:16:37 51°13.678 2°55.922 3.2 22 13.2 101670 82
2001-08-29 06:16:42 51°13.678 2°55.922 3.4 24 13.2 101670 82
2001-08-29 06:16:47 51°13.678 2°55.922 3.6 23 13.2 101670 83
2001-08-29 06:16:52 51°13.678 2°55.922 3.6 13 13.2 101670 83
2001-08-29 06:16:57 51°13.678 2°55.922 3.6 14 13.3 101670 83
2001-08-29 06:17:02 51°13.678 2°55.922 3.3 5 13.3 101670 83
2001-08-29 06:17:07 51°13.678 2°55.922 3.4 12 13.3 101670 83
2001-08-29 06:17:12 51°13.678 2°55.922 3.5 12 13.3 101670 83
2001-08-29 06:17:17 51°13.678 2°55.922 3.1 15 13.2 101670 83
2001-08-29 06:17:22 51°13.678 2°55.922 3.4 20 13.2 101670 83
2001-08-29 06:17:27 51°13.677 2°55.922 3.4 8 13.2 101670 83
2001-08-29 06:17:32 51°13.677 2°55.922 3.2 24 13.2 101670 83
2001-08-29 06:17:37 51°13.677 2°55.922 3.1 24 13.2 101670 83
2001-08-29 06:17:42 51°13.677 2°55.922 3.2 28 13.2 101670 83
2001-08-29 06:17:47 51°13.677 2°55.922 2.6 31 13.2 101670 83
2001-08-29 06:17:52 51°13.677 2°55.922 2.7 15 13.2 101670 83
2001-08-29 06:17:57 51°13.677 2°55.922 2.7 20 13.2 101670 83
2001-08-29 06:18:02 51°13.677 2°55.922 3.6 14 13.2 101670 83
2001-08-29 06:18:07 51°13.678 2°55.922 3.8 20 13.2 101670 83
2001-08-29 06:18:12 51°13.678 2°55.922 3.3 9 13.2 101670 83
2001-08-29 06:18:17 51°13.678 2°55.922 3.5 12 13.2 101670 83
2001-08-29 06:18:22 51°13.677 2°55.922 3.4 27 13.2 101670 83
2001-08-29 06:18:27 51°13.677 2°55.922 4 31 13.2 101670 83
2001-08-29 06:18:32 51°13.677 2°55.922 3.4 13 13.2 101670 83
2001-08-29 06:18:37 51°13.677 2°55.922 3.4 19 13.2 101670 82
2001-08-29 06:18:42 51°13.677 2°55.922 4.4 24 13.2 101670 82
2001-08-29 06:18:47 51°13.677 2°55.922 4.3 17 13.2 101670 82
2001-08-29 06:18:52 51°13.677 2°55.922 3.7 18 13.2 101670 82
2001-08-29 06:18:57 51°13.677 2°55.922 3.2 15 13.2 101670 82
2001-08-29 06:19:02 51°13.677 2°55.922 2.8 14 13.2 101670 82
2001-08-29 06:19:07 51°13.677 2°55.922 3.1 14 13.2 101670 82
2001-08-29 06:19:12 51°13.677 2°55.922 2.5 25 13.2 101670 82
2001-08-29 06:19:17 51°13.677 2°55.922 2.8 16 13.2 101670 82
2001-08-29 06:19:22 51°13.677 2°55.922 1.6 18 13.2 101670 82
2001-08-29 06:19:27 51°13.677 2°55.922 2.5 20 13.2 101670 82
2001-08-29 06:19:32 51°13.677 2°55.922 2.4 15 13.2 101670 82
2001-08-29 06:19:37 51°13.677 2°55.922 2.1 21 13.2 101670 82
2001-08-29 06:19:42 51°13.677 2°55.922 2.1 37 13.2 101670 82
2001-08-29 06:19:47 51°13.677 2°55.922 2.3 30 13.2 101670 82
2001-08-29 06:19:52 51°13.677 2°55.922 2.4 10 13.2 101670 82
2001-08-29 06:19:57 51°13.677 2°55.922 2.2 21 13.2 101670 83
2001-08-29 06:20:02 51°13.677 2°55.922 2.7 25 13.2 101670 83
2001-08-29 06:20:07 51°13.677 2°55.922 2.3 14 13.2 101670 83
2001-08-29 06:20:12 51°13.677 2°55.922 2.6 22 13.2 101670 83
2001-08-29 06:20:17 51°13.677 2°55.922 2.1 28 13.3 101670 83
2001-08-29 06:20:22 51°13.677 2°55.922 2.3 29 13.3 101670 83
2001-08-29 06:20:27 51°13.677 2°55.922 2.1 25 13.3 101670 83
2001-08-29 06:20:32 51°13.677 2°55.922 1.7 37 13.3 101670 83
2001-08-29 06:20:37 51°13.677 2°55.922 2.4 33 13.3 101670 83
2001-08-29 06:20:42 51°13.677 2°55.922 2.3 24 13.3 101670 83
2001-08-29 06:20:47 51°13.677 2°55.922 2.2 22 13.3 101670 83
2001-08-29 06:20:52 51°13.677 2°55.922 2.7 31 13.3 101670 83
2001-08-29 06:20:57 51°13.677 2°55.922 2.6 32 13.3 101670 82
2001-08-29 06:21:02 51°13.677 2°55.922 2.2 28 13.3 101670 82
2001-08-29 06:21:07 51°13.677 2°55.922 2.1 31 13.3 101670 82
2001-08-29 06:21:12 51°13.677 2°55.922 1.5 24 13.3 101670 82
2001-08-29 06:21:17 51°13.677 2°55.922 1.8 24 13.3 101670 82
2001-08-29 06:21:22 51°13.677 2°55.922 2.1 24 13.3 101670 82
2001-08-29 06:21:27 51°13.677 2°55.922 2.1 28 13.3 101670 82
2001-08-29 06:21:32 51°13.677 2°55.922 1.2 23 13.3 101670 82
2001-08-29 06:21:37 51°13.677 2°55.922 2.7 28 13.3 101670 83
2001-08-29 06:21:42 51°13.677 2°55.922 2.2 22 13.3 101670 83
2001-08-29 06:21:47 51°13.677 2°55.922 1.9 21 13.3 101670 83
2001-08-29 06:21:52 51°13.677 2°55.922 2.1 23 13.3 101670 83
2001-08-29 06:21:57 51°13.677 2°55.922 2.8 24 13.3 101660 83
2001-08-29 06:22:02 51°13.677 2°55.922 2.6 12 13.3 101660 83
2001-08-29 06:22:07 51°13.677 2°55.922 2.7 7 13.3 101670 83
2001-08-29 06:22:12 51°13.677 2°55.922 3.2 29 13.3 101670 83
2001-08-29 06:22:17 51°13.677 2°55.922 3 12 13.4 101670 83
2001-08-29 06:22:22 51°13.677 2°55.922 2.5 12 13.4 101670 83
2001-08-29 06:22:27 51°13.677 2°55.922 2.3 11 13.4 101660 82
2001-08-29 06:22:32 51°13.677 2°55.922 3.1 19 13.4 101660 82
2001-08-29 06:22:37 51°13.677 2°55.922 3.3 13 13.3 101670 82
2001-08-29 06:22:42 51°13.677 2°55.922 2.7 12 13.3 101670 82
2001-08-29 06:22:47 51°13.677 2°55.922 2.4 16 13.4 101670 83
2001-08-29 06:22:52 51°13.677 2°55.922 2.8 27 13.4 101670 83
2001-08-29 06:22:57 51°13.677 2°55.922 2.2 14 13.4 101670 82
2001-08-29 06:23:02 51°13.677 2°55.922 1.8 16 13.4 101670 82
2001-08-29 06:23:07 51°13.677 2°55.922 1.4 19 13.4 101660 82
2001-08-29 06:23:12 51°13.677 2°55.922 1.6 36 13.4 101660 82
2001-08-29 06:23:17 51°13.677 2°55.922 2.1 33 13.3 101670 82
2001-08-29 06:23:22 51°13.677 2°55.922 2.5 15 13.3 101670 82
2001-08-29 06:23:27 51°13.676 2°55.922 2.8 8 13.3 101660 82
2001-08-29 06:23:32 51°13.676 2°55.922 2.5 17 13.3 101660 82
2001-08-29 06:23:37 51°13.676 2°55.923 2.4 11 13.3 101670 82
2001-08-29 06:23:42 51°13.676 2°55.923 2.7 26 13.3 101670 82
2001-08-29 06:23:47 51°13.676 2°55.923 2.6 32 13.3 101660 82
2001-08-29 06:23:52 51°13.676 2°55.922 2.6 14 13.3 101660 82
2001-08-29 06:23:57 51°13.676 2°55.922 2.9 16 13.4 101670 82
2001-08-29 06:24:02 51°13.676 2°55.922 3.7 27 13.4 101670 82
2001-08-29 06:24:07 51°13.676 2°55.922 3.7 20 13.4 101670 82
2001-08-29 06:24:12 51°13.676 2°55.922 2.4 29 13.4 101670 82
2001-08-29 06:24:17 51°13.676 2°55.922 2.7 25 13.4 101660 82
2001-08-29 06:24:22 51°13.676 2°55.922 2.4 13 13.4 101660 82
2001-08-29 06:24:27 51°13.676 2°55.923 2.6 9 13.4 101660 82
2001-08-29 06:24:32 51°13.676 2°55.922 2.1 14 13.4 101660 82
2001-08-29 06:24:37 51°13.676 2°55.922 2.3 17 13.4 101670 82
2001-08-29 06:24:42 51°13.676 2°55.922 2.2 24 13.4 101670 82
2001-08-29 06:24:47 51°13.676 2°55.922 2 25 13.4 101660 82
2001-08-29 06:24:52 51°13.676 2°55.922 2.4 19 13.4 101660 82
2001-08-29 06:24:57 51°13.676 2°55.923 2.4 35 13.4 101660 82
2001-08-29 06:25:02 51°13.676 2°55.923 3.2 35 13.4 101660 82
2001-08-29 06:25:07 51°13.676 2°55.923 3.2 22 13.4 101660 82
2001-08-29 06:25:12 51°13.676 2°55.923 2.5 19 13.4 101660 82
2001-08-29 06:25:17 51°13.676 2°55.923 2.5 21 13.4 101660 82
2001-08-29 06:25:22 51°13.676 2°55.923 2.6 23 13.4 101660 82
2001-08-29 06:25:27 51°13.676 2°55.923 2.2 16 13.4 101660 82
2001-08-29 06:25:32 51°13.676 2°55.923 2.4 20 13.4 101660 82
2001-08-29 06:25:37 51°13.676 2°55.923 2.3 22 13.4 101660 82
2001-08-29 06:25:52 51°13.676 2°55.923 2.9 23 13.4 101660 82
2001-08-29 06:25:57 51°13.676 2°55.923 2.9 23 13.4 101660 82
2001-08-29 06:26:02 51°13.676 2°55.923 2.9 23 13.4 101660 82
2001-08-29 06:26:07 51°13.676 2°55.922 2.9 23 13.4 101660 82
2001-08-29 06:26:12 51°13.676 2°55.922 2.9 23 13.4 101660 82
2001-08-29 06:26:17 51°13.676 2°55.922 2.9 23 13.4 101660 82
2001-08-29 06:26:22 51°13.676 2°55.922     13.4 101660 82
2001-08-29 06:26:47 51°13.677 2°55.922 2.9 31 13.3 -999 80
2001-08-29 06:26:51 51°13.677 2°55.922 2.5 23 13.3 -999 80
2001-08-29 06:26:56 51°13.677 2°55.922 3.2 35 13.4 -999 81
2001-08-29 06:27:00 51°13.677 2°55.922 3.1 24 13.4 101660 81
2001-08-29 06:27:05 51°13.677 2°55.922 2.5 9 13.4 101660 81
2001-08-29 06:27:09 51°13.677 2°55.922 2.3 11 13.4 101660 81
2001-08-29 06:27:13 51°13.677 2°55.922 1.8 321 13.3 101660 81
2001-08-29 06:27:19 51°13.677 2°55.922 2.8 30 13.3 101660 81
2001-08-29 06:27:25 51°13.677 2°55.922 2.1 19 13.4 101660 81
2001-08-29 06:27:31 51°13.677 2°55.922 2.9 25 13.4 101660 81
2001-08-29 06:27:37 51°13.677 2°55.922 2.6 9 13.4 101660 81
2001-08-29 06:27:42 51°13.677 2°55.922 2.2 16 13.4 101660 81
2001-08-29 06:27:47 51°13.677 2°55.922 1.6 23 13.4 101660 81
2001-08-29 06:27:52 51°13.677 2°55.922 1.8 17 13.4 101660 81
2001-08-29 06:27:57 51°13.677 2°55.922 2 34 13.4 101660 81
2001-08-29 06:28:02 51°13.677 2°55.922 1.9 32 13.4 101660 81
2001-08-29 06:28:07 51°13.677 2°55.922 2.5 23 13.4 101660 81
2001-08-29 06:28:12 51°13.677 2°55.922 3.2 16 13.4 101660 81
2001-08-29 06:28:17 51°13.677 2°55.923 3.1 7 13.4 101660 81
2001-08-29 06:28:22 51°13.677 2°55.923 2.8 5 13.4 101660 81
2001-08-29 06:28:27 51°13.677 2°55.922 2 14 13.4 101670 82
2001-08-29 06:28:32 51°13.677 2°55.922 3 33 13.4 101670 82
2001-08-29 06:28:37 51°13.677 2°55.922 3 25 13.4 101660 81
2001-08-29 06:28:42 51°13.677 2°55.922 3.8 32 13.4 101660 81
2001-08-29 06:28:47 51°13.677 2°55.922 3.8 37 13.4 101660 81
2001-08-29 06:28:52 51°13.677 2°55.922 3.3 35 13.4 101660 81
2001-08-29 06:28:57 51°13.677 2°55.922 2.9 25 13.4 101660 81
2001-08-29 06:29:02 51°13.677 2°55.923 2.7 14 13.4 101660 81
2001-08-29 06:29:07 51°13.677 2°55.923 2.5 11 13.4 101660 81
2001-08-29 06:29:12 51°13.677 2°55.923 2.6 10 13.4 101660 81
2001-08-29 06:29:17 51°13.677 2°55.923 3.3 32 13.4 101660 81
2001-08-29 06:29:22 51°13.677 2°55.922 3.9 37 13.4 101660 81
2001-08-29 06:29:27 51°13.677 2°55.922 1.9 20 13.4 101660 81
2001-08-29 06:29:32 51°13.677 2°55.922 2.4 19 13.4 101660 81
2001-08-29 06:29:37 51°13.677 2°55.922 2.5 4 13.4 101660 81
2001-08-29 06:29:42 51°13.677 2°55.922 2.6 10 13.4 101660 81
2001-08-29 06:29:47 51°13.677 2°55.922 3.1 16 13.4 101660 81
2001-08-29 06:29:52 51°13.677 2°55.923 2.2 10 13.4 101660 81
2001-08-29 06:29:57 51°13.677 2°55.922 2.7 22 13.4 101660 81
2001-08-29 06:30:02 51°13.677 2°55.922 2.6 17 13.4 101660 81
2001-08-29 06:30:07 51°13.677 2°55.922 2.4 11 13.4 101660 81
2001-08-29 06:30:12 51°13.677 2°55.922 3.3 34 13.4 101660 81
2001-08-29 06:30:17 51°13.677 2°55.922 2.8 26 13.4 101660 81
2001-08-29 06:30:22 51°13.677 2°55.922 2.1 22 13.4 101660 81
2001-08-29 06:30:27 51°13.677 2°55.922 2.7 37 13.4 101660 81
2001-08-29 06:30:32 51°13.677 2°55.922 3 27 13.4 101660 81
2001-08-29 06:30:37 51°13.677 2°55.922 3.5 32 13.5 101660 81
2001-08-29 06:30:42 51°13.677 2°55.922 2.7 30 13.5 101660 81
2001-08-29 06:30:47 51°13.677 2°55.922 2.9 19 13.5 101660 81
2001-08-29 06:30:52 51°13.677 2°55.922 2.5 20 13.5 101660 81
2001-08-29 06:30:57 51°13.677 2°55.922 2.2 42 13.5 101660 81
2001-08-29 06:31:02 51°13.677 2°55.922 1.9 28 13.5 101660 81
2001-08-29 06:31:07 51°13.677 2°55.922 2.2 25 13.5 101660 81
2001-08-29 06:31:12 51°13.677 2°55.922 2.1 38 13.5 101660 81
2001-08-29 06:31:17 51°13.677 2°55.922 2.9 21 13.5 101660 81
2001-08-29 06:31:22 51°13.677 2°55.922 3.5 36 13.5 101660 81
2001-08-29 06:31:27 51°13.677 2°55.922 2.2 132 13.5 101660 81
2001-08-29 06:31:32 51°13.677 2°55.922 2 35 13.5 101660 81
2001-08-29 06:31:45 51°13.677 2°55.922 2 35 13.5 101660 81
2001-08-29 06:31:50 51°13.677 2°55.922 2 35 13.5 101660 81
2001-08-29 06:31:55 51°13.677 2°55.922 2 35 13.5 101660 81
2001-08-29 06:32:12 51°13.677 2°55.922 2 35 13.5 101660 81
2001-08-29 06:32:17 51°13.677 2°55.922 2 35 13.5 101660 81
2001-08-29 06:32:22 51°13.677 2°55.922 2 35 13.5 101660 81
2001-08-29 06:32:27 51°13.677 2°55.922 2 35 13.5 101660 81
2001-08-29 06:32:32 51°13.677 2°55.922 2 35 13.5 101660 81
2001-08-29 06:32:49 51°13.677 2°55.922 2 35 13.5 101660 81
2001-08-29 06:32:54 51°13.677 2°55.922 2 35 13.5 101660 81
2001-08-29 06:32:59 51°13.676 2°55.922 2 35 13.5 101660 81
2001-08-29 06:33:04 51°13.676 2°55.922 2 35 13.5 101660 81
2001-08-29 06:33:09 51°13.676 2°55.922 2 35 13.5 101660 81
2001-08-29 06:33:14 51°13.676 2°55.922 2 35 13.5 101660 81
2001-08-29 06:33:19 51°13.676 2°55.922 2 35 13.5 101660 81
2001-08-29 06:33:44 51°13.677 2°55.922 3 31 13.7 -999 78
2001-08-29 06:33:49 51°13.677 2°55.922 3.2 39 13.7 -999 78
2001-08-29 06:33:54 51°13.677 2°55.922 3.6 35 13.6 -999 81
2001-08-29 06:33:59 51°13.677 2°55.922 3.4 37 13.6 -999 81
2001-08-29 06:34:04 51°13.677 2°55.922 3 40 13.7 101650 80
2001-08-29 06:34:09 51°13.677 2°55.922 2.4 133 13.7 101650 80
2001-08-29 06:34:14 51°13.677 2°55.922 2.2 42 13.7 101650 80
2001-08-29 06:34:19 51°13.677 2°55.922 3.1 34 13.7 101650 80
2001-08-29 06:34:24 51°13.677 2°55.922 3 44 13.7 101650 80
2001-08-29 06:34:29 51°13.677 2°55.922 3.3 44 13.7 101650 80
2001-08-29 06:34:34 51°13.677 2°55.922 2.8 40 13.7 101650 80
2001-08-29 06:34:39 51°13.677 2°55.922 3.8 35 13.7 101650 80
2001-08-29 06:34:44 51°13.677 2°55.922 3.2 36 13.7 101650 80
2001-08-29 06:34:49 51°13.677 2°55.922 2.3 39 13.7 101650 80
2001-08-29 06:34:54 51°13.677 2°55.922 3.3 26 13.7 101650 80
2001-08-29 06:34:59 51°13.677 2°55.922 2.1 317 13.7 101650 80
2001-08-29 06:35:04 51°13.677 2°55.922 3.4 47 13.7 101650 80
2001-08-29 06:35:09 51°13.677 2°55.922 2.2 132 13.7 101650 80
2001-08-29 06:35:14 51°13.677 2°55.922 3.8 37 13.7 101650 80
2001-08-29 06:35:19 51°13.677 2°55.922 3.9 38 13.7 101650 80
2001-08-29 06:35:24 51°13.677 2°55.922 3 48 13.7 101640 80
2001-08-29 06:35:29 51°13.677 2°55.922 4.6 35 13.7 101640 80
2001-08-29 06:35:34 51°13.677 2°55.922 4.6 35 13.7 101650 80
2001-08-29 06:35:39 51°13.677 2°55.922 4.4 27 13.7 101650 80
2001-08-29 06:35:44 51°13.677 2°55.922 4.6 35 13.7 101640 80
2001-08-29 06:35:49 51°13.677 2°55.922 3.8 29 13.7 101640 80
2001-08-29 06:35:54 51°13.677 2°55.922 4.8 41 13.7 101640 80
2001-08-29 06:35:59 51°13.677 2°55.922 5.6 37 13.7 101640 80
2001-08-29 06:36:04 51°13.677 2°55.922 4.6 33 13.7 101640 80
2001-08-29 06:36:09 51°13.677 2°55.922 5.2 32 13.7 101640 80
2001-08-29 06:36:14 51°13.677 2°55.922 3.5 34 13.7 101640 80
2001-08-29 06:36:19 51°13.677 2°55.922 3.8 21 13.7 101640 80
2001-08-29 06:36:24 51°13.677 2°55.922 3.3 37 13.7 101640 80
2001-08-29 06:36:29 51°13.677 2°55.922 4.3 28 13.7 101640 80
2001-08-29 06:36:34 51°13.677 2°55.922 3.4 27 13.7 101640 80
2001-08-29 06:36:39 51°13.677 2°55.922 2.6 17 13.7 101640 80
2001-08-29 06:36:44 51°13.677 2°55.922 2.4 28 13.7 101640 80
2001-08-29 06:36:49 51°13.677 2°55.922 2.7 24 13.7 101640 80
2001-08-29 06:36:54 51°13.677 2°55.922 2.9 35 13.7 101640 80
2001-08-29 06:36:59 51°13.677 2°55.922 3 47 13.7 101640 80
2001-08-29 06:37:04 51°13.677 2°55.922 3.4 129 13.7 101640 80
2001-08-29 06:37:09 51°13.677 2°55.922 3.6 36 13.7 101640 80
2001-08-29 06:37:14 51°13.677 2°55.922 3.8 40 13.7 101640 80
2001-08-29 06:37:19 51°13.677 2°55.922 4.2 33 13.7 101640 80
2001-08-29 06:37:24 51°13.677 2°55.922 4.1 33 13.7 101640 80
2001-08-29 06:37:29 51°13.677 2°55.922 1.9 12 13.7 101640 80
2001-08-29 06:37:34 51°13.677 2°55.922 2.7 17 13.7 101640 80
2001-08-29 06:37:39 51°13.677 2°55.922 3.2 25 13.7 101640 80
2001-08-29 06:37:44 51°13.677 2°55.922 3.4 36 13.7 101640 80
2001-08-29 06:37:49 51°13.677 2°55.922 4 31 13.7 101640 80
2001-08-29 06:37:54 51°13.677 2°55.922 3.7 26 13.7 101640 80
2001-08-29 06:37:59 51°13.677 2°55.922 3.6 36 13.7 101640 80
2001-08-29 06:38:04 51°13.677 2°55.922 3.7 35 13.7 101630 80
2001-08-29 06:38:09 51°13.677 2°55.922 2.4 42 13.7 101630 80
2001-08-29 06:38:14 51°13.677 2°55.922 4.2 30 13.7 101630 80
2001-08-29 06:38:19 51°13.677 2°55.922 4.8 39 13.7 101630 80
2001-08-29 06:38:24 51°13.677 2°55.922 3.9 130 13.7 101630 80
2001-08-29 06:38:29 51°13.677 2°55.922 4.9 28 13.7 101630 80
2001-08-29 06:38:34 51°13.677 2°55.922 4 22 13.8 101630 80
2001-08-29 06:38:39 51°13.677 2°55.922 2.2 39 13.8 101630 80
2001-08-29 06:38:44 51°13.677 2°55.922 3.4 45 13.8 101630 80
2001-08-29 06:38:49 51°13.677 2°55.922 2.1 41 13.8 101630 80
2001-08-29 06:38:54 51°13.677 2°55.922 4.5 37 13.8 101630 80
2001-08-29 06:38:59 51°13.677 2°55.922 3.1 42 13.8 101630 80
2001-08-29 06:39:04 51°13.677 2°55.922 3.4 39 13.8 101630 80
2001-08-29 06:39:09 51°13.677 2°55.922 4.4 30 13.8 101630 80
2001-08-29 06:39:14 51°13.677 2°55.922 3.6 26 13.8 101630 80
2001-08-29 06:39:19 51°13.677 2°55.922 2.7 31 13.8 101630 80
2001-08-29 06:39:24 51°13.677 2°55.922 3.4 28 13.8 101630 80
2001-08-29 06:39:29 51°13.677 2°55.922 3.8 32 13.8 101630 80
2001-08-29 06:39:34 51°13.677 2°55.922 4.7 28 13.8 101630 80
2001-08-29 06:39:39 51°13.677 2°55.922 3 42 13.8 101630 80
2001-08-29 06:39:44 51°13.677 2°55.922 3.9 35 13.8 101630 80
2001-08-29 06:39:49 51°13.677 2°55.922 2.8 41 13.8 101630 80
2001-08-29 06:39:54 51°13.677 2°55.922 2.8 33 13.8 101630 80
2001-08-29 06:39:59 51°13.677 2°55.922 4.5 34 13.8 101630 80
2001-08-29 06:40:04 51°13.677 2°55.922 4.9 29 13.8 101630 79
2001-08-29 06:40:09 51°13.677 2°55.922 3.9 38 13.8 101630 79
2001-08-29 06:40:14 51°13.677 2°55.922 2.9 43 13.7 101630 80
2001-08-29 06:40:19 51°13.677 2°55.922 3.6 41 13.7 101630 80
2001-08-29 06:40:24 51°13.677 2°55.922 3.5 41 13.8 101630 80
2001-08-29 06:40:29 51°13.677 2°55.922 4.9 30 13.8 101630 80
2001-08-29 06:40:34 51°13.677 2°55.922 3.5 15 13.7 101630 80
2001-08-29 06:40:39 51°13.677 2°55.922 3.7 42 13.7 101630 80
2001-08-29 06:40:44 51°13.677 2°55.922 3.8 28 13.8 101630 80
2001-08-29 06:40:49 51°13.677 2°55.922 3.7 31 13.8 101630 80
2001-08-29 06:40:54 51°13.677 2°55.922 3.1 28 13.8 101630 80
2001-08-29 06:40:59 51°13.677 2°55.922 3.9 29 13.8 101630 80
2001-08-29 06:41:04 51°13.677 2°55.921 3.7 22 13.8 101630 80
2001-08-29 06:41:09 51°13.677 2°55.921 3.4 30 13.8 101630 80
2001-08-29 06:41:14 51°13.677 2°55.921 3.7 42 13.8 101630 80
2001-08-29 06:41:19 51°13.677 2°55.921 5.7 41 13.8 101630 80
2001-08-29 06:41:24 51°13.677 2°55.921 3.7 42 13.8 101630 80
2001-08-29 06:41:29 51°13.677 2°55.921 4.6 41 13.8 101630 80
2001-08-29 06:41:34 51°13.677 2°55.921 4.9 39 13.8 101630 80
2001-08-29 06:41:39 51°13.677 2°55.921 4.8 31 13.8 101630 80
2001-08-29 06:41:44 51°13.677 2°55.922 4.1 48 13.8 101630 80
2001-08-29 06:41:49 51°13.677 2°55.922 4.8 25 13.8 101630 80
2001-08-29 06:41:54 51°13.677 2°55.922 2.8 15 13.8 101630 80
2001-08-29 06:41:59 51°13.677 2°55.922 4.5 33 13.8 101630 80
2001-08-29 06:42:04 51°13.677 2°55.922 3.1 12 13.8 101630 80
2001-08-29 06:42:09 51°13.677 2°55.922 4.3 32 13.8 101630 80
2001-08-29 06:42:14 51°13.677 2°55.922 4.7 33 13.8 101630 80
2001-08-29 06:42:19 51°13.677 2°55.922 3.8 14 13.8 101630 80
2001-08-29 06:42:24 51°13.677 2°55.922 3.1 32 13.8 101630 80
2001-08-29 06:42:29 51°13.677 2°55.922 3.9 31 13.8 101630 80
2001-08-29 06:42:34 51°13.677 2°55.922 2.3 38 13.8 101630 80
2001-08-29 06:42:39 51°13.677 2°55.922 3.3 26 13.8 101630 80
2001-08-29 06:42:44 51°13.677 2°55.922 3.8 25 13.8 101630 80
2001-08-29 06:42:49 51°13.677 2°55.922 3.6 34 13.8 101630 80
2001-08-29 06:42:54 51°13.677 2°55.922 4.6 34 13.8 101630 80
2001-08-29 06:42:59 51°13.677 2°55.922 5 40 13.8 101630 80
2001-08-29 06:43:04 51°13.677 2°55.922 3.4 15 13.8 101640 80
2001-08-29 06:43:09 51°13.677 2°55.922 4.5 40 13.8 101640 80
2001-08-29 06:43:14 51°13.677 2°55.922 5.4 38 13.8 101630 80
2001-08-29 06:43:19 51°13.677 2°55.922 3.3 37 13.8 101630 80
2001-08-29 06:43:24 51°13.677 2°55.922 2.3 42 13.8 101630 80
2001-08-29 06:43:29 51°13.677 2°55.922 5.7 35 13.8 101630 80
2001-08-29 06:43:34 51°13.677 2°55.922 2.6 23 13.8 101630 80
2001-08-29 06:43:39 51°13.677 2°55.922 3.6 34 13.8 101630 80
2001-08-29 06:43:44 51°13.677 2°55.922 5.6 34 13.9 101630 80
2001-08-29 06:43:49 51°13.677 2°55.922 4.2 16 13.9 101630 80
2001-08-29 06:43:54 51°13.677 2°55.922 4.5 40 13.8 101630 80
2001-08-29 06:43:59 51°13.677 2°55.922 4 34 13.8 101630 80
2001-08-29 06:44:04 51°13.677 2°55.922 3.1 23 13.8 101630 79
2001-08-29 06:44:09 51°13.677 2°55.922 4.1 35 13.8 101630 79
2001-08-29 06:44:14 51°13.677 2°55.922 5.1 34 13.8 101630 79
2001-08-29 06:44:19 51°13.677 2°55.922 4.6 31 13.8 101630 79
2001-08-29 06:44:24 51°13.677 2°55.922 4.8 33 13.8 101630 79
2001-08-29 06:44:29 51°13.677 2°55.922 5.8 31 13.8 101630 79
2001-08-29 06:44:34 51°13.677 2°55.922 4.6 29 13.8 101630 79
2001-08-29 06:44:39 51°13.677 2°55.922 5.1 28 13.8 101630 79
2001-08-29 06:44:44 51°13.677 2°55.922 3.6 28 13.8 101630 79
2001-08-29 06:44:49 51°13.677 2°55.922 3.8 25 13.8 101630 79
2001-08-29 06:44:54 51°13.677 2°55.922 4.4 44 13.8 101630 79
2001-08-29 06:44:59 51°13.677 2°55.922 3.9 29 13.8 101630 79
2001-08-29 06:45:04 51°13.677 2°55.922 4.7 23 13.8 101630 79
2001-08-29 06:45:09 51°13.677 2°55.922 4 22 13.8 101630 79
2001-08-29 06:45:14 51°13.677 2°55.922 3.7 18 13.8 101630 79
2001-08-29 06:45:19 51°13.677 2°55.922 3.8 32 13.8 101630 79
2001-08-29 06:45:24 51°13.677 2°55.922 5.6 35 13.8 101630 79
2001-08-29 06:45:29 51°13.677 2°55.922 5.1 37 13.8 101630 79
2001-08-29 06:45:34 51°13.677 2°55.922 4.6 38 13.8 101630 80
2001-08-29 06:45:39 51°13.677 2°55.922 4.9 35 13.8 101630 80
2001-08-29 06:45:44 51°13.677 2°55.922 4.4 29 13.8 101630 80
2001-08-29 06:45:49 51°13.677 2°55.922 3.6 45 13.8 101630 80
2001-08-29 06:45:54 51°13.677 2°55.922 3.5 25 13.8 101630 79
2001-08-29 06:45:59 51°13.677 2°55.922 3.9 33 13.8 101630 79
2001-08-29 06:46:04 51°13.677 2°55.922 3 58 13.8 101630 79
2001-08-29 06:46:09 51°13.677 2°55.922 4.8 30 13.8 101630 79
2001-08-29 06:46:14 51°13.677 2°55.922 4.2 21 13.8 101630 79
2001-08-29 06:46:19 51°13.677 2°55.922 4 17 13.8 101630 79
2001-08-29 06:46:24 51°13.677 2°55.922 4.9 27 13.8 101630 79
2001-08-29 06:46:29 51°13.677 2°55.922 3.8 31 13.8 101630 79
2001-08-29 06:46:34 51°13.677 2°55.922 4.2 28 13.8 101630 79
2001-08-29 06:46:39 51°13.677 2°55.922 4.4 33 13.8 101630 79
2001-08-29 06:46:44 51°13.677 2°55.922 3.2 23 13.8 101630 80
2001-08-29 06:46:49 51°13.677 2°55.922 5 34 13.8 101630 80
2001-08-29 06:46:54 51°13.677 2°55.922 3.3 39 13.8 101630 80
2001-08-29 06:46:59 51°13.677 2°55.922 2.8 32 13.8 101630 80
2001-08-29 06:47:04 51°13.677 2°55.922 3.8 30 13.8 101630 80
2001-08-29 06:47:09 51°13.677 2°55.922 2.9 25 13.8 101630 80
2001-08-29 06:47:14 51°13.677 2°55.922 3.7 32 13.8 101630 80
2001-08-29 06:47:19 51°13.677 2°55.922 3.5 35 13.8 101630 80
2001-08-29 06:47:24 51°13.677 2°55.922 3.3 37 13.8 101630 80
2001-08-29 06:47:29 51°13.677 2°55.922 2.9 31 13.8 101630 80
2001-08-29 06:47:34 51°13.677 2°55.922 3.7 35 13.8 101630 80
2001-08-29 06:47:39 51°13.677 2°55.922 3.1 31 13.8 101630 80
2001-08-29 06:47:44 51°13.677 2°55.922 3.1 39 13.8 101630 80
2001-08-29 06:47:49 51°13.677 2°55.922 2.3 23 13.8 101630 80
2001-08-29 06:47:54 51°13.677 2°55.922 1.7 45 13.8 101630 80
2001-08-29 06:47:59 51°13.677 2°55.922 2.8 23 13.8 101630 80
2001-08-29 06:48:04 51°13.677 2°55.922 2.9 30 13.9 101630 80
2001-08-29 06:48:09 51°13.677 2°55.922 2.9 22 13.9 101630 80
2001-08-29 06:48:14 51°13.677 2°55.922 4.9 40 13.9 101630 80
2001-08-29 06:48:19 51°13.677 2°55.922 4 31 13.9 101630 80
2001-08-29 06:48:24 51°13.677 2°55.922 3 16 13.9 101630 80
2001-08-29 06:48:29 51°13.677 2°55.922 3.1 29 13.9 101630 80
2001-08-29 06:48:34 51°13.677 2°55.922 4.7 34 13.9 101630 80
2001-08-29 06:48:39 51°13.677 2°55.922 2.5 49 13.9 101630 80
2001-08-29 06:48:44 51°13.677 2°55.922 2.9 33 13.9 101630 80
2001-08-29 06:48:49 51°13.677 2°55.922 3.3 31 13.9 101630 80
2001-08-29 06:49:03 51°13.677 2°55.922 3.1 11 13.9 101630 80
2001-08-29 06:49:08 51°13.677 2°55.922 3.1 11 13.9 101630 80
2001-08-29 06:49:13 51°13.677 2°55.922 3.1 11 13.9 101630 80
2001-08-29 06:49:18 51°13.677 2°55.922 3.1 11 13.9 101630 80
2001-08-29 06:49:23 51°13.677 2°55.922 3.1 11 13.9 101630 80
2001-08-29 06:49:28 51°13.677 2°55.922 3.1 11 13.9 101630 80
2001-08-29 06:49:53 51°13.677 2°55.923 4.6 42 13.9 -999 78
2001-08-29 06:50:00 51°13.677 2°55.923 4.6 42 13.9 -999 78
2001-08-29 06:50:05 51°13.677 2°55.923 4.6 42 13.9 -999 78
2001-08-29 06:50:10 51°13.677 2°55.923 4.6 42 13.9 -999 78
2001-08-29 06:50:15 51°13.677 2°55.923 4.6 42 13.9 -999 78
2001-08-29 06:50:20 51°13.677 2°55.923 4.6 42 13.9 -999 78
2001-08-29 06:50:25 51°13.677 2°55.923 4.6 42 13.9 -999 78
2001-08-29 06:50:30 51°13.677 2°55.923     13.9 -999 78
2001-08-29 06:50:55 51°13.677 2°55.923 3.2 16 14 -999 77
2001-08-29 06:51:00 51°13.677 2°55.923 5.4 21 14 -999 77
2001-08-29 06:51:05 51°13.677 2°55.923 4.3 20 14 -999 79
2001-08-29 06:51:10 51°13.677 2°55.923 5 30 14 -999 79
2001-08-29 06:51:15 51°13.677 2°55.923 4.8 32 14 101640 79
2001-08-29 06:51:20 51°13.677 2°55.923 5.1 34 14 101640 79
2001-08-29 06:51:25 51°13.677 2°55.923 4.7 30 14 101640 79
2001-08-29 06:51:30 51°13.677 2°55.923 4.3 27 14 101640 79
2001-08-29 06:51:35 51°13.677 2°55.923 4.1 20 14 101640 79
2001-08-29 06:51:40 51°13.677 2°55.922 4 23 14 101640 79
2001-08-29 06:51:45 51°13.677 2°55.922 3.1 14 13.9 101640 79
2001-08-29 06:51:50 51°13.677 2°55.922 3.3 17 13.9 101640 79
2001-08-29 06:51:55 51°13.677 2°55.922 3.4 14 14 101640 79
2001-08-29 06:52:00 51°13.677 2°55.922 3.4 10 14 101640 79
2001-08-29 06:52:05 51°13.677 2°55.922 3.1 30 13.9 101640 79
2001-08-29 06:52:10 51°13.677 2°55.922 2.8 18 13.9 101640 79
2001-08-29 06:52:15 51°13.677 2°55.922 2.2 28 13.9 101640 79
2001-08-29 06:52:20 51°13.677 2°55.922 2.4 17 13.9 101640 79
2001-08-29 06:52:25 51°13.677 2°55.922 2.2 12 13.9 101640 79
2001-08-29 06:52:30 51°13.677 2°55.923 2.6 29 13.9 101640 79
2001-08-29 06:52:35 51°13.677 2°55.923 3 39 13.9 101640 79
2001-08-29 06:52:39 51°13.677 2°55.923 3.1 36 13.9 101640 79
2001-08-29 06:52:43 51°13.677 2°55.923 2.5 36 13.9 101640 80
2001-08-29 06:52:47 51°13.677 2°55.923 2.5 35 13.9 101640 80
2001-08-29 06:52:51 51°13.677 2°55.923 3.4 32 14 101640 80
2001-08-29 06:52:55 51°13.677 2°55.922 1.7 316 14 101640 80
2001-08-29 06:53:01 51°13.677 2°55.923 3 40 14 101640 80
2001-08-29 06:53:07 51°13.677 2°55.923 3.7 28 14 101640 80
2001-08-29 06:53:11 51°13.677 2°55.923 3.1 23 14 101640 80
2001-08-29 06:53:16 51°13.677 2°55.923 2.5 18 14 101640 80
2001-08-29 06:53:21 51°13.677 2°55.923 2.7 34 14 101640 80
2001-08-29 06:53:27 51°13.677 2°55.923 3.5 37 14 101640 80
2001-08-29 06:53:31 51°13.677 2°55.923 4.1 20 14 101640 80
2001-08-29 06:53:35 51°13.677 2°55.923 4.5 27 14 101640 80
2001-08-29 06:53:41 51°13.677 2°55.923 4.5 34 14 101640 80
2001-08-29 06:53:47 51°13.677 2°55.923 3.2 37 14 101640 80
2001-08-29 06:53:51 51°13.677 2°55.923 4 29 14 101640 80
2001-08-29 06:53:56 51°13.676 2°55.923 3.7 33 14 101640 80
2001-08-29 06:54:01 51°13.676 2°55.923 2.9 132 14 101640 80
2001-08-29 06:54:05 51°13.676 2°55.923 3.3 31 14 101640 80
2001-08-29 06:54:11 51°13.676 2°55.923 2.9 6 14 101640 79
2001-08-29 06:54:17 51°13.676 2°55.923 2.9 32 14 101640 79
2001-08-29 06:54:21 51°13.676 2°55.923 2.2 11 14.1 101640 79
2001-08-29 06:54:27 51°13.676 2°55.923 2.5 15 14.1 101640 79
2001-08-29 06:54:31 51°13.676 2°55.923 2.7 14 14.1 101640 80
2001-08-29 06:54:36 51°13.676 2°55.923 3 23 14.1 101640 80
2001-08-29 06:54:41 51°13.676 2°55.923 4 29 14.1 101640 80
2001-08-29 06:54:47 51°13.676 2°55.923 2.5 23 14.1 101640 80
2001-08-29 06:54:51 51°13.676 2°55.923 4.1 41 14.1 101640 80
2001-08-29 06:54:57 51°13.676 2°55.923 2.7 48 14.1 101640 80
2001-08-29 06:55:01 51°13.676 2°55.923 3 29 14.1 101640 80
2001-08-29 06:55:05 51°13.677 2°55.923 1.8 40 14.1 101640 80
2001-08-29 06:55:11 51°13.677 2°55.923 2.4 37 14.1 101640 80
2001-08-29 06:55:17 51°13.677 2°55.923 3.7 35 14.1 101640 80
2001-08-29 06:55:21 51°13.677 2°55.923 3.4 21 14.2 101640 80
2001-08-29 06:55:27 51°13.677 2°55.923 3.5 25 14.2 101640 80
2001-08-29 06:55:31 51°13.677 2°55.923 3.9 27 14.1 101640 80
2001-08-29 06:55:36 51°13.677 2°55.923 3.6 30 14.1 101640 80
2001-08-29 06:55:41 51°13.677 2°55.923 3.7 32 14.2 101640 80
2001-08-29 06:55:47 51°13.677 2°55.922 3.1 36 14.2 101640 80
2001-08-29 06:55:51 51°13.677 2°55.922 2.8 22 14.2 101640 80
2001-08-29 06:55:57 51°13.677 2°55.922 2.5 30 14.2 101640 80
2001-08-29 06:56:01 51°13.677 2°55.922 2.4 25 14.2 101640 79
2001-08-29 06:56:07 51°13.677 2°55.922 3.4 13 14.2 101640 79
2001-08-29 06:56:11 51°13.677 2°55.922 3.3 21 14.2 101640 79
2001-08-29 06:56:16 51°13.677 2°55.922 3.7 28 14.2 101640 79
2001-08-29 06:56:21 51°13.677 2°55.922 2.9 41 14.2 101640 80
2001-08-29 06:56:27 51°13.676 2°55.922 2.7 40 14.2 101640 80
2001-08-29 06:56:31 51°13.676 2°55.922 2.4 21 14.3 101640 80
2001-08-29 06:56:36 51°13.676 2°55.923 3 29 14.3 101640 80
2001-08-29 06:56:41 51°13.676 2°55.922 3.6 23 14.3 101630 79
2001-08-29 06:56:46 51°13.676 2°55.922 2.5 28 14.3 101630 79
2001-08-29 06:56:51 51°13.676 2°55.922 3.1 40 14.3 101630 79
2001-08-29 06:56:56 51°13.676 2°55.923 3.2 52 14.3 101630 79
2001-08-29 06:57:01 51°13.676 2°55.923 4.5 34 14.3 101640 79
2001-08-29 06:57:05 51°13.676 2°55.923 4.4 30 14.3 101640 79
2001-08-29 06:57:11 51°13.676 2°55.923 4.4 38 14.3 101640 79
2001-08-29 06:57:17 51°13.676 2°55.923 2.1 40 14.3 101640 79
2001-08-29 06:57:21 51°13.676 2°55.923 4.6 38 14.3 101640 79
2001-08-29 06:57:27 51°13.676 2°55.923 4.4 31 14.3 101640 79
2001-08-29 06:57:31 51°13.676 2°55.923 3.7 17 14.3 101640 79
2001-08-29 06:57:36 51°13.676 2°55.923 2.8 58 14.3 101640 79
2001-08-29 06:57:41 51°13.676 2°55.923 3.4 30 14.3 101630 79
2001-08-29 06:57:47 51°13.676 2°55.923 4.3 36 14.3 101630 79
2001-08-29 06:57:51 51°13.677 2°55.923 4.6 39 14.3 101630 79
2001-08-29 06:57:56 51°13.677 2°55.923 4.9 42 14.3 101630 79
2001-08-29 06:58:01 51°13.677 2°55.923 4.9 35 14.3 101640 79
2001-08-29 06:58:05 51°13.677 2°55.923 4.3 37 14.3 101640 79
2001-08-29 06:58:11 51°13.677 2°55.923 3.8 32 14.3 101630 79
2001-08-29 06:58:17 51°13.677 2°55.923 2.3 42 14.3 101630 79
2001-08-29 06:58:21 51°13.677 2°55.923 4.3 45 14.3 101630 78
2001-08-29 06:58:27 51°13.677 2°55.923 2.9 133 14.3 101630 78
2001-08-29 06:58:31 51°13.677 2°55.923 3.7 32 14.3 101630 78
2001-08-29 06:58:36 51°13.677 2°55.923 3.4 54 14.3 101630 78
2001-08-29 06:58:41 51°13.677 2°55.923 3.3 43 14.3 101630 78
2001-08-29 06:58:47 51°13.677 2°55.923 2.7 43 14.3 101630 78
2001-08-29 06:58:51 51°13.677 2°55.923 3.4 31 14.3 101630 78
2001-08-29 06:58:57 51°13.677 2°55.923 3.3 31 14.3 101630 78
2001-08-29 06:59:01 51°13.677 2°55.923 3.4 30 14.3 101630 78
2001-08-29 06:59:05 51°13.677 2°55.923 3.3 28 14.3 101630 78
2001-08-29 06:59:11 51°13.677 2°55.923 2.9 62 14.3 101630 78
2001-08-29 06:59:17 51°13.677 2°55.923 3.5 39 14.3 101630 78
2001-08-29 06:59:21 51°13.677 2°55.923 4.4 33 14.3 101630 79
2001-08-29 06:59:27 51°13.677 2°55.923 3.4 39 14.3 101630 79
2001-08-29 06:59:31 51°13.677 2°55.923 2.8 38 14.3 101630 79
2001-08-29 06:59:37 51°13.677 2°55.923 3.5 39 14.3 101630 79
2001-08-29 06:59:41 51°13.677 2°55.923 3.2 40 14.4 101630 79
2001-08-29 06:59:46 51°13.677 2°55.923 3.1 39 14.4 101630 79
2001-08-29 06:59:51 51°13.677 2°55.923 2.8 45 14.4 101630 79
2001-08-29 06:59:57 51°13.677 2°55.923 4.7 37 14.4 101630 79
2001-08-29 07:00:01 51°13.677 2°55.923 4.2 41 14.4 101630 79
2001-08-29 07:00:07 51°13.677 2°55.923 3.1 38 14.4 101630 79
2001-08-29 07:00:11 51°13.677 2°55.923 4.3 37 14.4 101630 79
2001-08-29 07:00:16 51°13.677 2°55.923 3.3 37 14.4 101630 79
2001-08-29 07:00:21 51°13.677 2°55.923 3.3 37 14.4 101630 79
2001-08-29 07:00:27 51°13.677 2°55.923 3.6 31 14.4 101630 79
2001-08-29 07:00:31 51°13.677 2°55.923 3.4 318 14.4 101630 78
2001-08-29 07:00:36 51°13.677 2°55.923 2.3 318 14.4 101630 78
2001-08-29 07:00:41 51°13.677 2°55.923 2.9 34 14.4 101630 78
2001-08-29 07:00:47 51°13.677 2°55.923 2.2   14.4 101630 78
2001-08-29 07:00:51 51°13.677 2°55.923 3.4 30 14.4 101630 78
2001-08-29 07:00:56 51°13.677 2°55.923 3 36 14.4 101630 78
2001-08-29 07:01:01 51°13.677 2°55.923 2.3 30 14.4 101630 78
2001-08-29 07:01:05 51°13.677 2°55.923 3.6 34 14.4 101630 78
2001-08-29 07:01:11 51°13.677 2°55.923 3 134 14.4 101630 78
2001-08-29 07:01:17 51°13.677 2°55.923 2.9 35 14.4 101630 78
2001-08-29 07:01:21 51°13.677 2°55.923 4.8 33 14.4 101630 78
2001-08-29 07:01:27 51°13.677 2°55.923 2.8 24 14.4 101630 78
2001-08-29 07:01:31 51°13.677 2°55.923 3.5 28 14.4 101630 78
2001-08-29 07:01:36 51°13.677 2°55.923 2.3 43 14.4 101630 78
2001-08-29 07:01:41 51°13.677 2°55.923 2.6 28 14.5 101640 78
2001-08-29 07:01:47 51°13.677 2°55.923 3.2 29 14.5 101640 78
2001-08-29 07:01:51 51°13.677 2°55.923 3.5 35 14.5 101630 78
2001-08-29 07:01:57 51°13.677 2°55.923 3.3 36 14.5 101630 78
2001-08-29 07:02:01 51°13.677 2°55.923 2.5 28 14.5 101630 78
2001-08-29 07:02:07 51°13.677 2°55.923 3.8 37 14.5 101630 78
2001-08-29 07:02:11 51°13.677 2°55.923 4 35 14.5 101630 78
2001-08-29 07:02:17 51°13.677 2°55.923 5.4 34 14.5 101630 78
2001-08-29 07:02:21 51°13.677 2°55.923 2.4 46 14.5 101630 78
2001-08-29 07:02:27 51°13.677 2°55.923 3.8 30 14.5 101630 78
2001-08-29 07:02:31 51°13.677 2°55.923 3.2 317 14.5 101640 78
2001-08-29 07:02:37 51°13.677 2°55.923 4.5 33 14.5 101640 78
2001-08-29 07:02:41 51°13.677 2°55.923 4.7 30 14.5 101640 78
2001-08-29 07:02:47 51°13.677 2°55.923 4.8 31 14.5 101640 78
2001-08-29 07:02:51 51°13.677 2°55.923 3.9 36 14.5 101630 78
2001-08-29 07:02:57 51°13.677 2°55.923 5.1 34 14.5 101630 78
2001-08-29 07:03:01 51°13.677 2°55.923 3.9 33 14.5 101630 78
2001-08-29 07:03:07 51°13.677 2°55.923 3.1 26 14.5 101630 78
2001-08-29 07:03:11 51°13.677 2°55.923 2.7 15 14.5 101630 78
2001-08-29 07:03:16 51°13.677 2°55.923 2.5 44 14.5 101630 78
2001-08-29 07:03:21 51°13.677 2°55.923 2.8 23 14.5 101630 77
2001-08-29 07:03:27 51°13.677 2°55.923 4.4 39 14.5 101630 77
2001-08-29 07:03:31 51°13.677 2°55.923 3.8 30 14.5 101640 78
2001-08-29 07:03:37 51°13.677 2°55.923 3.5 26 14.5 101640 78
2001-08-29 07:03:41 51°13.677 2°55.923 3.2 22 14.5 101640 78
2001-08-29 07:03:45 51°13.677 2°55.923 3.1 26 14.5 101640 78
2001-08-29 07:03:51 51°13.677 2°55.923 3.8 40 14.5 101640 78
2001-08-29 07:03:57 51°13.677 2°55.923 3.8 27 14.5 101640 78
2001-08-29 07:04:01 51°13.677 2°55.923 3.2 45 14.5 101640 78
2001-08-29 07:04:07 51°13.677 2°55.923 3.5 35 14.5 101640 78
2001-08-29 07:04:11 51°13.677 2°55.923 3.8 35 14.5 101630 78
2001-08-29 07:04:17 51°13.677 2°55.923 4.9 38 14.5 101630 78
2001-08-29 07:04:21 51°13.677 2°55.923 5 30 14.5 101640 78
2001-08-29 07:04:27 51°13.677 2°55.923 3.7 31 14.5 101640 78
2001-08-29 07:04:31 51°13.677 2°55.923 3.6 8 14.5 101630 78
2001-08-29 07:04:37 51°13.677 2°55.923 4.1 36 14.5 101630 78
2001-08-29 07:04:41 51°13.677 2°55.923 3.9 37 14.6 101640 78
2001-08-29 07:04:47 51°13.677 2°55.922 4.6 31 14.6 101640 78
2001-08-29 07:04:51 51°13.677 2°55.923 4.6 22 14.6 101640 78
2001-08-29 07:04:57 51°13.677 2°55.923 5.2 27 14.6 101640 78
2001-08-29 07:05:01 51°13.677 2°55.923 4.4 37 14.6 101630 78
2001-08-29 07:05:07 51°13.677 2°55.923 3 37 14.6 101630 78
2001-08-29 07:05:11 51°13.677 2°55.923 4 17 14.6 101630 78
2001-08-29 07:05:17 51°13.677 2°55.923 4.7 28 14.6 101630 78
2001-08-29 07:05:21 51°13.677 2°55.923 4 132 14.6 101630 78
2001-08-29 07:05:27 51°13.677 2°55.924 3.8 27 14.6 101630 78
2001-08-29 07:05:31 51°13.677 2°55.924 4.1 47 14.6 101630 78
2001-08-29 07:05:37 51°13.676 2°55.924 4 30 14.6 101630 78
2001-08-29 07:05:41 51°13.676 2°55.924 2.6 11 14.6 101630 78
2001-08-29 07:05:47 51°13.676 2°55.924 2.3 6 14.6 101630 78
2001-08-29 07:05:51 51°13.676 2°55.924 2.8 28 14.6 101630 78
2001-08-29 07:05:57 51°13.676 2°55.924 2.4 18 14.6 101630 78
2001-08-29 07:06:01 51°13.676 2°55.924 2.5 4 14.6 101630 78
2001-08-29 07:06:07 51°13.675 2°55.924 2.7 350 14.6 101630 78
2001-08-29 07:06:11 51°13.675 2°55.924 1.9 354 14.6 101630 78
2001-08-29 07:06:17 51°13.675 2°55.924 3.1 21 14.6 101630 78
2001-08-29 07:06:21 51°13.675 2°55.924 2.5 9 14.6 101630 78
2001-08-29 07:06:27 51°13.675 2°55.924 2.6 4 14.6 101630 78
2001-08-29 07:06:31 51°13.675 2°55.924 3.1 2 14.6 101630 78
2001-08-29 07:06:37 51°13.675 2°55.924 3 358 14.6 101630 78
2001-08-29 07:06:41 51°13.674 2°55.924 3.3 353 14.6 101630 78
2001-08-29 07:06:45 51°13.674 2°55.924 3 23 14.6 101630 78
2001-08-29 07:06:51 51°13.674 2°55.925 3.3 360 14.6 101630 78
2001-08-29 07:06:57 51°13.674 2°55.924 3.1 4 14.6 101630 78
2001-08-29 07:07:01 51°13.674 2°55.923 3.1 3 14.6 101630 78
2001-08-29 07:07:07 51°13.674 2°55.92 4.9 29 14.6 101630 78
2001-08-29 07:07:11 51°13.674 2°55.917 3.9 27 14.6 101630 78
2001-08-29 07:07:15 51°13.675 2°55.913 5.1 30 14.6 101630 78
2001-08-29 07:07:21 51°13.675 2°55.907 3.9 25 14.6 101630 78
2001-08-29 07:07:27 51°13.676 2°55.9 3.1 17 14.6 101630 78
2001-08-29 07:07:31 51°13.677 2°55.894 2.7 16 14.5 101630 78
2001-08-29 07:07:37 51°13.678 2°55.885 2.4 5 14.5 101630 78
2001-08-29 07:07:41 51°13.678 2°55.878 2.4 358 14.5 101630 78
2001-08-29 07:07:45 51°13.679 2°55.871 3.1 23 14.5 101630 78
2001-08-29 07:07:51 51°13.68 2°55.86 3.1 26 14.5 101630 78
2001-08-29 07:07:57 51°13.681 2°55.85 2.4 11 14.5 101630 78
2001-08-29 07:08:01 51°13.681 2°55.844 3.1 357 14.5 101630 78
2001-08-29 07:08:07 51°13.682 2°55.834 2.2 352 14.5 101630 78
2001-08-29 07:08:11 51°13.683 2°55.828 2.1 352 14.5 101630 78
2001-08-29 07:08:15 51°13.683 2°55.821 1.8 346 14.5 101630 78
2001-08-29 07:08:21 51°13.684 2°55.812 1.9 353 14.5 101630 78
2001-08-29 07:08:25 51°13.684 2°55.805 2 352 14.5 101630 78
2001-08-29 07:08:31 51°13.685 2°55.796 2 351 14.5 101630 78
2001-08-29 07:08:37 51°13.686 2°55.787 2.3 348 14.5 101630 78
2001-08-29 07:08:41 51°13.687 2°55.781 2.6 341 14.5 101630 78
2001-08-29 07:08:47 51°13.687 2°55.773 1.6 347 14.5 101630 78
2001-08-29 07:08:51 51°13.688 2°55.767 2.4 323 14.5 101630 78
2001-08-29 07:08:55 51°13.688 2°55.762 1.6 328 14.5 101630 78
2001-08-29 07:09:01 51°13.689 2°55.755 1.6 357 14.5 101630 78
2001-08-29 07:09:05 51°13.689 2°55.75 1.3 342 14.5 101630 78
2001-08-29 07:09:11 51°13.69 2°55.744 2.8 322 14.5 101630 78
2001-08-29 07:09:15 51°13.69 2°55.742 0.7 338 14.5 101630 78
2001-08-29 07:09:21 51°13.691 2°55.74 3.3 336 14.4 101630 78
2001-08-29 07:09:25 51°13.691 2°55.74 2.7 342 14.4 101630 78
2001-08-29 07:09:31 51°13.692 2°55.74 3.5 331 14.4 101630 79
2001-08-29 07:09:35 51°13.693 2°55.741 3.6 309 14.4 101630 79
2001-08-29 07:09:41 51°13.696 2°55.744 3.1 305 14.4 101620 79
2001-08-29 07:09:45 51°13.698 2°55.746 2.9 301 14.4 101620 79
2001-08-29 07:09:51 51°13.701 2°55.748 2.5 301 14.4 101620 79
2001-08-29 07:09:55 51°13.703 2°55.75 2.4 298 14.4 101620 79
2001-08-29 07:09:59 51°13.704 2°55.751 2.6 288 14.4 101620 80
2001-08-29 07:10:05 51°13.706 2°55.752 3.2 264 14.4 101620 80
2001-08-29 07:10:11 51°13.707 2°55.752 3.3 250 14.4 101620 80
2001-08-29 07:10:15 51°13.707 2°55.752 4.1 258 14.4 101620 80
2001-08-29 07:10:21 51°13.706 2°55.751 3.6 250 14.4 101620 80
2001-08-29 07:10:25 51°13.705 2°55.751 3.9 231 14.4 101620 80
2001-08-29 07:10:31 51°13.703 2°55.75 3.6 239 14.5 101620 80
2001-08-29 07:10:37 51°13.702 2°55.749 3.5 243 14.5 101620 80
2001-08-29 07:10:41 51°13.702 2°55.748 3.5 248 14.4 101620 79
2001-08-29 07:10:47 51°13.703 2°55.748 3.3 259 14.4 101620 79
2001-08-29 07:10:51 51°13.705 2°55.747 2.8 250 14.4 101620 79
2001-08-29 07:10:57 51°13.708 2°55.746 2.9 239 14.4 101620 79
2001-08-29 07:11:01 51°13.71 2°55.745 2.3 243 14.4 101620 79
2001-08-29 07:11:05 51°13.713 2°55.744 2 229 14.4 101620 79
2001-08-29 07:11:11 51°13.718 2°55.741 2.3 132 14.4 101620 79
2001-08-29 07:11:15 51°13.722 2°55.738 2.2 253 14.4 101620 79
2001-08-29 07:11:21 51°13.728 2°55.733 3.2 238 14.4 101620 80
2001-08-29 07:11:25 51°13.733 2°55.729 2.6 240 14.4 101620 80
2001-08-29 07:11:31 51°13.74 2°55.722 3.2 241 14.5 101620 81
2001-08-29 07:11:35 51°13.745 2°55.718 2.8 222 14.5 101620 81
2001-08-29 07:11:41 51°13.752 2°55.711 2.9 256 14.5 101630 81
2001-08-29 07:11:45 51°13.756 2°55.706 2.2 288 14.5 101630 81
2001-08-29 07:11:51 51°13.764 2°55.698 2.4 244 14.5 101630 80
2001-08-29 07:11:55 51°13.769 2°55.693 2.3 266 14.5 101630 80
2001-08-29 07:12:01 51°13.777 2°55.685 1.2 307 14.5 101630 79
2001-08-29 07:12:05 51°13.783 2°55.68 1.4 321 14.5 101630 79
2001-08-29 07:12:11 51°13.791 2°55.672 1.9 329 14.5 101620 79
2001-08-29 07:12:15 51°13.797 2°55.667 2.1 271 14.5 101620 79
2001-08-29 07:12:21 51°13.806 2°55.659 2.7 279 14.5 101630 79
2001-08-29 07:12:25 51°13.812 2°55.653 2.8 271 14.5 101630 79
2001-08-29 07:12:29 51°13.818 2°55.648 3.8 271 14.5 101630 79
2001-08-29 07:12:35 51°13.828 2°55.64 3 261 14.5 101630 79
2001-08-29 07:12:39 51°13.834 2°55.635 2.6 254 14.5 101630 79
2001-08-29 07:12:45 51°13.844 2°55.627 1.6 278 14.5 101630 79
2001-08-29 07:12:51 51°13.854 2°55.619 1.9 284 14.5 101630 79
2001-08-29 07:12:55 51°13.861 2°55.613 2.9 323 14.5 101630 79
2001-08-29 07:13:01 51°13.871 2°55.605 3.2 300 14.5 101620 79
2001-08-29 07:13:05 51°13.878 2°55.6 3.5 325 14.5 101620 79
2001-08-29 07:13:11 51°13.888 2°55.592 3 308 14.5 101630 79
2001-08-29 07:13:15 51°13.895 2°55.587 3.9 305 14.5 101630 79
2001-08-29 07:13:19 51°13.902 2°55.582 3.6 299 14.5 101630 79
2001-08-29 07:13:25 51°13.913 2°55.574 2.7 305 14.5 101630 79
2001-08-29 07:13:31 51°13.924 2°55.566 3.8 284 14.4 101630 79
2001-08-29 07:13:35 51°13.931 2°55.561 3.4 270 14.4 101630 79
2001-08-29 07:13:39 51°13.939 2°55.556 3.6 264 14.5 101630 80
2001-08-29 07:13:45 51°13.95 2°55.548 3.4 253 14.5 101630 80
2001-08-29 07:13:51 51°13.961 2°55.541 3 256 14.5 101630 80
2001-08-29 07:13:55 51°13.968 2°55.535 2.9 255 14.5 101630 80
2001-08-29 07:14:01 51°13.979 2°55.528 3.2 275 14.5 101630 80
2001-08-29 07:14:05 51°13.986 2°55.523 2.3 261 14.5 101630 80
2001-08-29 07:14:11 51°13.998 2°55.516 1.8 284 14.4 101630 79
2001-08-29 07:14:15 51°14.005 2°55.511 2 293 14.4 101630 79
2001-08-29 07:14:21 51°14.016 2°55.503 2.4 288 14.4 101630 79
2001-08-29 07:14:25 51°14.024 2°55.497 2.3 302 14.4 101630 79
2001-08-29 07:14:31 51°14.035 2°55.489 2.4 305 14.5 101630 80
2001-08-29 07:14:35 51°14.042 2°55.484 3.6 284 14.5 101630 80
2001-08-29 07:14:39 51°14.049 2°55.479 3.2 280 14.5 101630 80
2001-08-29 07:14:45 51°14.061 2°55.471 2.7 284 14.5 101630 80
2001-08-29 07:14:51 51°14.071 2°55.463 2.4 267 14.5 101630 80
2001-08-29 07:14:55 51°14.079 2°55.458 2 258 14.5 101630 80
2001-08-29 07:15:01 51°14.09 2°55.449 1.8 269 14.5 101630 79
2001-08-29 07:15:05 51°14.097 2°55.444 1.9 285 14.5 101630 79
2001-08-29 07:15:11 51°14.107 2°55.436 2.9 266 14.5 101630 80
2001-08-29 07:15:15 51°14.114 2°55.43 2.2 274 14.5 101630 80
2001-08-29 07:15:19 51°14.121 2°55.425 2.3 279 14.5 101630 79
2001-08-29 07:15:25 51°14.132 2°55.416 1.7 264 14.5 101630 79
2001-08-29 07:15:31 51°14.143 2°55.408 1.8 272 14.5 101630 79
2001-08-29 07:15:35 51°14.15 2°55.402 2.2 310 14.5 101630 79
2001-08-29 07:15:39 51°14.157 2°55.396 2 305 14.5 101630 79
2001-08-29 07:15:45 51°14.168 2°55.387 1.4 291 14.5 101630 79
2001-08-29 07:15:51 51°14.179 2°55.377 1.3 285 14.5 101630 79
2001-08-29 07:15:55 51°14.186 2°55.371 1.2 295 14.5 101630 79
2001-08-29 07:16:01 51°14.196 2°55.361 2 265 14.5 101640 80
2001-08-29 07:16:05 51°14.203 2°55.353 1.9 270 14.5 101640 80
2001-08-29 07:16:09 51°14.21 2°55.346 1.7 276 14.5 101640 80
2001-08-29 07:16:15 51°14.22 2°55.334 1.2 279 14.5 101640 80
2001-08-29 07:16:19 51°14.226 2°55.326 1.8 272 14.5 101640 80
2001-08-29 07:16:25 51°14.236 2°55.314 2.3 266 14.5 101640 80
2001-08-29 07:16:31 51°14.245 2°55.301 1.8 246 14.5 101640 79
2001-08-29 07:16:35 51°14.251 2°55.293 2.6 275 14.5 101640 79
2001-08-29 07:16:41 51°14.26 2°55.279 2.2 258 14.5 101640 79
2001-08-29 07:16:45 51°14.266 2°55.27 2.3 263 14.5 101640 79
2001-08-29 07:16:49 51°14.271 2°55.26 1.8 271 14.5 101640 80
2001-08-29 07:16:55 51°14.28 2°55.244 1.8 265 14.5 101640 80
2001-08-29 07:17:01 51°14.289 2°55.227 1.3 296 14.6 101640 80
2001-08-29 07:17:05 51°14.295 2°55.216 1.9 271 14.6 101640 80
2001-08-29 07:17:09 51°14.301 2°55.203 1.6 284 14.6 101640 80
2001-08-29 07:17:15 51°14.31 2°55.185 1.3 307 14.6 101640 80
2001-08-29 07:17:19 51°14.317 2°55.171 1.3 251 14.6 101630 80
2001-08-29 07:17:25 51°14.326 2°55.151 0.9 244 14.6 101630 80
2001-08-29 07:17:31 51°14.336 2°55.13 0.7 224 14.6 101630 79
2001-08-29 07:17:35 51°14.343 2°55.117 0.8 309 14.6 101630 79
2001-08-29 07:17:39 51°14.349 2°55.103 1.5 276 14.6 101640 79
2001-08-29 07:17:45 51°14.36 2°55.082 1.7 308 14.6 101640 79
2001-08-29 07:17:51 51°14.372 2°55.064 1.3 317 14.6 101640 78
2001-08-29 07:17:55 51°14.38 2°55.051 2.7 303 14.6 101640 78
2001-08-29 07:18:01 51°14.394 2°55.034 3.1 300 14.6 101640 78
2001-08-29 07:18:05 51°14.404 2°55.022 2.6 303 14.6 101640 78
2001-08-29 07:18:11 51°14.418 2°55.005 2.5 300 14.6 101640 78
2001-08-29 07:18:15 51°14.428 2°54.993 2 320 14.6 101640 78
2001-08-29 07:18:19 51°14.439 2°54.982 2.4 302 14.6 101630 79
2001-08-29 07:18:25 51°14.454 2°54.965 1.9 307 14.6 101630 79
2001-08-29 07:18:31 51°14.469 2°54.947 1.5 310 14.6 101640 79
2001-08-29 07:18:35 51°14.48 2°54.936 2.2 286 14.6 101640 79
2001-08-29 07:18:41 51°14.495 2°54.918 1.8 276 14.7 101630 78
2001-08-29 07:18:45 51°14.506 2°54.906 2.4 296 14.7 101630 78
2001-08-29 07:18:51 51°14.521 2°54.887 3.2 304 14.6 101630 78
2001-08-29 07:18:55 51°14.532 2°54.875 2.9 283 14.6 101630 78
2001-08-29 07:19:01 51°14.547 2°54.856 2.5 279 14.6 101630 79
2001-08-29 07:19:05 51°14.556 2°54.843 2.6 279 14.6 101630 79
2001-08-29 07:19:11 51°14.571 2°54.824 3.3 274 14.7 101640 79
2001-08-29 07:19:15 51°14.581 2°54.812 2.5 269 14.7 101640 79
2001-08-29 07:19:21 51°14.597 2°54.793 3 271 14.7 101630 79
2001-08-29 07:19:25 51°14.607 2°54.781 2.9 262 14.7 101630 79
2001-08-29 07:19:31 51°14.623 2°54.763 2.2 301 14.7 101640 78
2001-08-29 07:19:35 51°14.634 2°54.751 3.1 289 14.7 101640 78
2001-08-29 07:19:39 51°14.644 2°54.74 3.2 277 14.7 101630 78
2001-08-29 07:19:45 51°14.66 2°54.722 2.7 283 14.7 101630 78
2001-08-29 07:19:51 51°14.676 2°54.705 3.1 309 14.6 101630 78
2001-08-29 07:19:55 51°14.687 2°54.694 2.4 300 14.6 101630 78
2001-08-29 07:19:59 51°14.698 2°54.682 2.5 295 14.7 101630 79
2001-08-29 07:20:05 51°14.714 2°54.666 2.7 289 14.7 101630 79
2001-08-29 07:20:11 51°14.73 2°54.649 3.7 281 14.7 101630 80
2001-08-29 07:20:15 51°14.741 2°54.638 3.7 268 14.7 101630 80
2001-08-29 07:20:21 51°14.757 2°54.62 3.8 272 14.7 101630 80
2001-08-29 07:20:25 51°14.768 2°54.609 3.9 275 14.7 101630 80
2001-08-29 07:20:31 51°14.784 2°54.592 4 272 14.8 101630 80
2001-08-29 07:20:35 51°14.795 2°54.58 3.7 281 14.8 101630 80
2001-08-29 07:20:41 51°14.811 2°54.563 3.7 265 14.8 101620 80
2001-08-29 07:20:45 51°14.821 2°54.551 2.5 265 14.8 101620 80
2001-08-29 07:20:51 51°14.837 2°54.533 3 291 14.8 101630 78
2001-08-29 07:20:55 51°14.847 2°54.521 2.3 286 14.8 101630 78
2001-08-29 07:21:01 51°14.863 2°54.503 2.1 297 14.8 101630 78
2001-08-29 07:21:05 51°14.874 2°54.491 3.1 277 14.8 101630 78
2001-08-29 07:21:11 51°14.89 2°54.472 2.5 303 14.8 101630 78
2001-08-29 07:21:15 51°14.9 2°54.459 1.9 282 14.8 101630 78
2001-08-29 07:21:19 51°14.91 2°54.447 2.2 306 14.8 101630 81
2001-08-29 07:21:25 51°14.925 2°54.428 2.8 305 14.8 101630 81
2001-08-29 07:21:31 51°14.941 2°54.411 3.5 307 14.8 101630 78
2001-08-29 07:21:35 51°14.952 2°54.4 3.3 265 14.8 101630 78
2001-08-29 07:21:39 51°14.963 2°54.39 4.7 263 14.8 101630 79
2001-08-29 07:21:45 51°14.98 2°54.374 3.6 261 14.8 101630 79
2001-08-29 07:21:51 51°14.996 2°54.358 3.9 256 14.9 101630 80
2001-08-29 07:21:55 51°15.007 2°54.347 3 259 14.9 101630 80
2001-08-29 07:22:01 51°15.024 2°54.33 3 271 14.9 101620 80
2001-08-29 07:22:05 51°15.034 2°54.318 3.2 269 14.9 101620 80
2001-08-29 07:22:11 51°15.05 2°54.301 3.3 276 14.9 101630 79
2001-08-29 07:22:15 51°15.06 2°54.289 2.7 270 14.9 101630 79
2001-08-29 07:22:19 51°15.071 2°54.278 3.5 276 14.9 101630 78
2001-08-29 07:22:25 51°15.088 2°54.262 3.4 278 14.9 101630 78
2001-08-29 07:22:31 51°15.105 2°54.247 3.8 281 14.9 101630 77
2001-08-29 07:22:35 51°15.116 2°54.237 3.3 281 14.9 101630 77
2001-08-29 07:22:39 51°15.128 2°54.226 4.3 270 14.9 101620 77
2001-08-29 07:22:45 51°15.145 2°54.21 2.5 293 14.9 101620 77
2001-08-29 07:22:51 51°15.163 2°54.195 2.6 296 14.9 101630 78
2001-08-29 07:22:55 51°15.175 2°54.184 3.8 302 14.9 101630 78
2001-08-29 07:23:01 51°15.193 2°54.168 3 296 14.9 101630 77
2001-08-29 07:23:05 51°15.206 2°54.157 2.5 292 14.9 101630 77
2001-08-29 07:23:09 51°15.218 2°54.145 3.4 277 14.9 101630 78
2001-08-29 07:23:15 51°15.237 2°54.127 3.3 302 14.9 101630 78
2001-08-29 07:23:21 51°15.255 2°54.109 3.4 291 15 101630 79
2001-08-29 07:23:25 51°15.268 2°54.097 3.8 295 15 101630 79
2001-08-29 07:23:31 51°15.287 2°54.078 3.6 291 15 101620 80
2001-08-29 07:23:35 51°15.299 2°54.066 3.6 290 15 101620 80
2001-08-29 07:23:39 51°15.312 2°54.053 2.9 307 15 101620 78
2001-08-29 07:23:45 51°15.331 2°54.035 4.5 308 15 101620 78
2001-08-29 07:23:51 51°15.35 2°54.016 4.1 301 15 101630 77
2001-08-29 07:23:55 51°15.363 2°54.003 3.2 299 15 101630 77
2001-08-29 07:24:01 51°15.382 2°53.984 3.3 300 15 101620 78
2001-08-29 07:24:05 51°15.395 2°53.972 4.2 289 15 101620 78
2001-08-29 07:24:11 51°15.414 2°53.953 3.5 295 15 101630 79
2001-08-29 07:24:15 51°15.427 2°53.941 4.4 283 15 101630 79
2001-08-29 07:24:19 51°15.44 2°53.929 4.2 280 15 101620 79
2001-08-29 07:24:25 51°15.46 2°53.911 4.1 303 15 101620 79
2001-08-29 07:24:31 51°15.48 2°53.894 3.9 302 15 101620 79
2001-08-29 07:24:35 51°15.492 2°53.882 4.2 298 15 101620 79
2001-08-29 07:24:41 51°15.512 2°53.865 3.6 299 15 101620 78
2001-08-29 07:24:45 51°15.525 2°53.853 5.5 278 15 101620 78
2001-08-29 07:24:49 51°15.538 2°53.842 3.2 298 15 101630 79
2001-08-29 07:24:55 51°15.558 2°53.825 3.6 290 15 101630 79
2001-08-29 07:25:01 51°15.577 2°53.807 3.5 297 15 101630 78
2001-08-29 07:25:05 51°15.59 2°53.795 4.4 273 15 101630 78
2001-08-29 07:25:11 51°15.61 2°53.778 3.3 299 15 101610 79
2001-08-29 07:25:15 51°15.623 2°53.766 3.5 300 15 101610 79
2001-08-29 07:25:19 51°15.636 2°53.755 3.7 279 15 101630 79
2001-08-29 07:25:25 51°15.656 2°53.738 4 301 15 101630 79
2001-08-29 07:25:31 51°15.675 2°53.721 4.1 303 15 101620 78
2001-08-29 07:25:35 51°15.689 2°53.71 4.2 298 15 101620 78
2001-08-29 07:25:41 51°15.708 2°53.693 4.3 283 15.1 101630 81
2001-08-29 07:25:45 51°15.722 2°53.682 4.4 297 15.1 101630 81
2001-08-29 07:25:49 51°15.735 2°53.67 4.3 301 15.1 101630 79
2001-08-29 07:25:55 51°15.754 2°53.653 3 307 15.1 101630 79
2001-08-29 07:25:59 51°15.768 2°53.642 3.9 303 15.1 101620 78
2001-08-29 07:26:05 51°15.787 2°53.625 4.4 288 15.1 101620 78
2001-08-29 07:26:09 51°15.8 2°53.614 3.6 294 15.1 101630 78
2001-08-29 07:26:15 51°15.82 2°53.597 3.2 306 15.1 101630 78
2001-08-29 07:26:19 51°15.833 2°53.587 3.4 296 15 101620 77
2001-08-29 07:26:25 51°15.853 2°53.571 4.3 291 15 101620 77
2001-08-29 07:26:31 51°15.873 2°53.555 3.3 281 15.1 101620 78
2001-08-29 07:26:35 51°15.886 2°53.544 4.5 277 15.1 101620 78
2001-08-29 07:26:41 51°15.906 2°53.529 3.5 300 15.1 101640 80
2001-08-29 07:26:45 51°15.919 2°53.519 3.3 300 15.1 101640 80
2001-08-29 07:26:51 51°15.939 2°53.504 4.2 290 15.1 101630 78
2001-08-29 07:26:55 51°15.952 2°53.494 3.4 280 15.1 101630 78
2001-08-29 07:26:59 51°15.965 2°53.483 3.7 291 15.1 101630 77
2001-08-29 07:27:05 51°15.985 2°53.466 3.1 286 15.1 101630 77
2001-08-29 07:27:09 51°15.997 2°53.455 4.4 279 15.1 101630 78
2001-08-29 07:27:15 51°16.017 2°53.438 3.1 296 15.1 101630 78
2001-08-29 07:27:19 51°16.03 2°53.427 3.4 295 15.1 101630 79
2001-08-29 07:27:25 51°16.05 2°53.411 4 276 15.1 101630 79
2001-08-29 07:27:31 51°16.069 2°53.395 4.5 277 15.1 101620 78
2001-08-29 07:27:35 51°16.083 2°53.385 4 277 15.1 101620 78
2001-08-29 07:27:39 51°16.096 2°53.376 3.9 279 15.1 101630 78
2001-08-29 07:27:45 51°16.116 2°53.361 4.1 280 15.1 101630 78
2001-08-29 07:27:51 51°16.137 2°53.346 3.8 284 15.2 101630 78
2001-08-29 07:27:55 51°16.15 2°53.337 3.2 284 15.2 101630 78
2001-08-29 07:28:01 51°16.171 2°53.322 3 293 15.2 101630 79
2001-08-29 07:28:05 51°16.184 2°53.312 4.2 281 15.2 101630 79
2001-08-29 07:28:11 51°16.205 2°53.298 4.7 282 15.2 101620 78
2001-08-29 07:28:15 51°16.218 2°53.288 3.8 284 15.2 101620 78
2001-08-29 07:28:21 51°16.239 2°53.274 3.7 296 15.2 101620 77
2001-08-29 07:28:25 51°16.252 2°53.264 4.2 286 15.2 101620 77
2001-08-29 07:28:31 51°16.273 2°53.25 3.9 291 15.2 101620 78
2001-08-29 07:28:35 51°16.286 2°53.239 5.2 308 15.2 101620 78
2001-08-29 07:28:41 51°16.306 2°53.224 4.4 301 15.3 101620 78
2001-08-29 07:28:45 51°16.32 2°53.214 3.4 292 15.3 101620 78
2001-08-29 07:28:51 51°16.34 2°53.199 3.8 297 15.3 101620 77
2001-08-29 07:28:55 51°16.353 2°53.189 4.1 294 15.3 101620 77
2001-08-29 07:28:59 51°16.367 2°53.179 4.1 294 15.3 101630 77
2001-08-29 07:29:05 51°16.386 2°53.163 3.9 293 15.3 101630 77
2001-08-29 07:29:11 51°16.406 2°53.148 4.2 285 15.3 101620 78
2001-08-29 07:29:15 51°16.42 2°53.137 3.6 291 15.3 101620 78
2001-08-29 07:29:19 51°16.433 2°53.127 3.9 294 15.3 101620 78
2001-08-29 07:29:25 51°16.453 2°53.111 4.2 302 15.3 101620 78
2001-08-29 07:29:31 51°16.473 2°53.096 3.8 300 15.3 101620 79
2001-08-29 07:29:35 51°16.486 2°53.085 3.6 300 15.3 101620 79
2001-08-29 07:29:41 51°16.506 2°53.069 3.8 298 15.3 101630 78
2001-08-29 07:29:45 51°16.519 2°53.059 4 299 15.3 101630 78
2001-08-29 07:29:51 51°16.539 2°53.043 4.1 296 15.3 101620 77
2001-08-29 07:29:55 51°16.552 2°53.032 4.4 280 15.3 101620 77
2001-08-29 07:29:59 51°16.565 2°53.022 4.2 286 15.3 101630 78
2001-08-29 07:30:05 51°16.585 2°53.005 4.2 279 15.3 101630 78
2001-08-29 07:30:11 51°16.605 2°52.989 4 283 15.3 101620 77
2001-08-29 07:30:15 51°16.617 2°52.978 3.6 293 15.3 101620 77
2001-08-29 07:30:19 51°16.631 2°52.967 4.4 299 15.3 101620 78
2001-08-29 07:30:25 51°16.65 2°52.95 4.5 302 15.3 101620 78
2001-08-29 07:30:31 51°16.67 2°52.932 3.9 290 15.3 101630 77
2001-08-29 07:30:35 51°16.682 2°52.921 3.5 296 15.3 101630 77
2001-08-29 07:30:41 51°16.702 2°52.904 4.6 300 15.4 101630 79
2001-08-29 07:30:45 51°16.715 2°52.892 3.7 287 15.4 101630 79
2001-08-29 07:30:51 51°16.734 2°52.876 4.8 293 15.4 101620 79
2001-08-29 07:30:55 51°16.748 2°52.865 4.3 278 15.4 101620 79
2001-08-29 07:30:59 51°16.761 2°52.855 4.9 276 15.4 101620 78
2001-08-29 07:31:05 51°16.78 2°52.839 3.6 300 15.4 101620 78
2001-08-29 07:31:09 51°16.793 2°52.83 3.9 299 15.4 101630 76
2001-08-29 07:31:15 51°16.813 2°52.815 5.1 274 15.4 101630 76
2001-08-29 07:31:19 51°16.826 2°52.805 5.7 292 15.4 101630 79
2001-08-29 07:31:25 51°16.845 2°52.789 5.2 299 15.4 101630 79
2001-08-29 07:31:31 51°16.865 2°52.774 4.8 297 15.4 101630 80
2001-08-29 07:31:35 51°16.878 2°52.764 4.2 296 15.4 101630 80
2001-08-29 07:31:39 51°16.891 2°52.754 4.9 300 15.5 101630 79
2001-08-29 07:31:45 51°16.911 2°52.738 4.3 287 15.5 101630 79
2001-08-29 07:31:51 51°16.931 2°52.723 4.3 286 15.5 101620 79
2001-08-29 07:31:55 51°16.944 2°52.713 5.4 289 15.5 101620 79
2001-08-29 07:32:01 51°16.964 2°52.699 5.1 290 15.5 101630 77
2001-08-29 07:32:05 51°16.978 2°52.689 5.6 293 15.5 101630 77
2001-08-29 07:32:11 51°16.998 2°52.674 4.4 280 15.5 101620 77
2001-08-29 07:32:15 51°17.011 2°52.664 3.7 292 15.5 101620 77
2001-08-29 07:32:19 51°17.025 2°52.655 3.5 293 15.5 101620 76
2001-08-29 07:32:25 51°17.045 2°52.641 5.2 302 15.5 101620 76
2001-08-29 07:32:31 51°17.066 2°52.627 4.8 299 15.4 101620 76
2001-08-29 07:32:35 51°17.079 2°52.617 5.2 279 15.4 101620 76
2001-08-29 07:32:41 51°17.099 2°52.603 4 302 15.5 101620 77
2001-08-29 07:32:45 51°17.112 2°52.594 5.6 303 15.5 101620 77
2001-08-29 07:32:51 51°17.133 2°52.58 4.6 298 15.5 101620 78
2001-08-29 07:32:55 51°17.146 2°52.57 4.9 281 15.5 101620 78
2001-08-29 07:33:01 51°17.166 2°52.555 4.6 277 15.5 101610 77
2001-08-29 07:33:05 51°17.179 2°52.544 3.7 285 15.5 101610 77
2001-08-29 07:33:11 51°17.198 2°52.528 3.8 288 15.5 101630 79
2001-08-29 07:33:15 51°17.211 2°52.517 4.5 280 15.5 101630 79
2001-08-29 07:33:19 51°17.224 2°52.505 3.8 280 15.6 101620 78
2001-08-29 07:33:25 51°17.243 2°52.488 4.4 287 15.6 101620 78
2001-08-29 07:33:31 51°17.262 2°52.47 4.3 303 15.6 101630 77
2001-08-29 07:33:35 51°17.275 2°52.458 4.4 275 15.6 101630 77
2001-08-29 07:33:41 51°17.294 2°52.441 5.3 281 15.5 101620 76